Flag for Mexico Weather past 2 weeks in Ojinaga, Chihuahua, Mexico

Now
68 °F

Mostly cloudy.


Feels Like: 68 °F
Forecast: 73 / 99 °F
Wind: 9 mph from Northeast

Location: Marfa Municipal Airport

Current Time: Jul 29, 2015 at 6:35:43 AM

Latest Report: Jul 29, 2015 at 5:55 AM


Visibility: 10 mi

Pressure: 30.20 "Hg (27.55 "Hg at 788m altitude)

Humidity: 83%

Dew point: 63 °F

Location of OjinagaLocation

Historic Weather in Ojinaga — Graph

°F

Ojinaga temperature yesterday

Maximum temperature yesterday: 90 °F (at 1:55 PM)
Minimum temperature yesterday: 61 °F (at 3:35 AM)
Average temperature yesterday: 75 °F

Past Weeks' High & Low Weather Summary

 TemperatureHumidityPressure
High93 °F (Jul 14, 1:35 PM)100% (Jul 23, 2:35 AM)30.24 "Hg (Jul 23, 2:35 AM)
Low59 °F (Jul 26, 5:15 AM)20% (Jul 14, 1:55 PM)30.01 "Hg (Jul 14, 6:35 PM)
Average77 °F61%30.13 "Hg
* Reported Jul 14 5:15 AM — Jul 29 5:35 AM, Ojinaga, Weather by CustomWeather, © 2015

Note: Actual official high and low records may vary slightly from our data, if they occured in-between our weather recording intervals... More about our weather records

Advertising

Ojinaga weather history for previous 24 hours

 ConditionsComfort  
Time TempWeatherWind HumidityBarometerVisibility
5:35 AM
Wed, Jul 29
68 °FOvercast.10 mph83%30.19 "Hg10 mi
5:15 AM68 °FPassing clouds.10 mph83%30.18 "Hg10 mi
4:55 AM68 °FPassing clouds.7 mph83%30.18 "Hg10 mi
4:35 AM70 °FOvercast.8 mph78%30.18 "Hg10 mi
4:15 AM70 °FMostly cloudy.13 mph78%30.18 "Hg10 mi
3:55 AM73 °FOvercast.16 mph65%30.17 "Hg10 mi
3:35 AM72 °FOvercast.No wind61%30.17 "Hg10 mi
3:15 AM68 °FOvercast.9 mph78%30.16 "Hg10 mi
2:55 AM70 °FOvercast.3 mph69%30.14 "Hg10 mi
2:35 AM70 °FPassing clouds.6 mph69%30.14 "Hg10 mi
2:15 AM70 °FPassing clouds.3 mph73%30.15 "Hg10 mi
1:35 AM66 °FClear.5 mph88%30.16 "Hg10 mi
1:15 AM66 °FClear.6 mph94%30.17 "Hg10 mi
12:55 AM66 °FClear.3 mph88%30.17 "Hg10 mi
12:35 AM68 °FPassing clouds.6 mph83%30.18 "Hg10 mi
12:15 AM70 °FPassing clouds.3 mph78%30.18 "Hg10 mi
11:55 PM
Tue, Jul 28
72 °FClear.3 mph73%30.18 "Hg10 mi
11:35 PM70 °FClear.6 mph78%30.17 "Hg10 mi
11:15 PM73 °FClear.No wind65%30.16 "Hg10 mi
10:55 PM73 °FPassing clouds.3 mph65%30.16 "Hg10 mi
10:35 PM73 °FClear.No wind69%30.15 "Hg10 mi
9:55 PM73 °FClear.3 mph74%30.15 "Hg10 mi
9:15 PM75 °FClear.3 mph65%30.13 "Hg10 mi
8:55 PM77 °FPassing clouds.3 mph57%30.12 "Hg10 mi
8:35 PM77 °FBroken clouds.8 mph61%30.12 "Hg10 mi
8:15 PM79 °FPartly sunny.7 mph58%30.10 "Hg10 mi
7:55 PM81 °FScattered clouds.8 mph51%30.10 "Hg10 mi
7:35 PM81 °FSunny.7 mph58%30.09 "Hg10 mi
6:55 PM88 °FSunny.No wind38%30.07 "Hg10 mi
6:35 PM86 °FSunny.No wind38%30.07 "Hg10 mi
6:15 PM86 °FSunny.5 mph40%30.07 "Hg10 mi
5:55 PM84 °FSunny.3 mph43%30.07 "Hg10 mi
5:35 PM84 °FSunny.7 mph45%30.08 "Hg10 mi
5:15 PM84 °FSunny.8 mph45%30.08 "Hg10 mi
4:55 PM88 °FSunny.9 mph40%30.08 "Hg10 mi
4:35 PM88 °FSunny.5 mph40%30.08 "Hg10 mi
4:15 PM86 °FSunny.5 mph38%30.09 "Hg10 mi
3:55 PM82 °FSunny.3 mph45%30.10 "Hg10 mi
3:35 PM84 °FThundershowers. Sunny.5 mph40%30.09 "Hg10 mi
3:15 PM82 °FThundershowers. Sunny.12 mph45%30.11 "Hg10 mi
2:55 PM84 °FThunderstorms. Passing clouds.12 mph43%30.11 "Hg10 mi
2:35 PM84 °FThundershowers. Passing clouds.16 mph45%30.11 "Hg10 mi
2:15 PM90 °FThundershowers. Sunny.No wind33%30.11 "Hg10 mi
1:55 PM90 °FSunny.8 mph31%30.11 "Hg10 mi
1:35 PM88 °FThundershowers. Sunny.No wind33%30.12 "Hg10 mi
1:15 PM88 °FSunny.7 mph33%30.13 "Hg10 mi
12:55 PM88 °FSunny.3 mph35%30.13 "Hg10 mi
12:35 PM88 °FSunny.5 mph35%30.14 "Hg10 mi
12:15 PM88 °FSunny.6 mph40%30.14 "Hg10 mi
11:55 AM86 °FSunny.8 mph43%30.15 "Hg10 mi
11:35 AM86 °FSunny.8 mph43%30.15 "Hg10 mi
11:15 AM84 °FSunny.9 mph43%30.15 "Hg10 mi
10:55 AM84 °FSunny.8 mph45%30.15 "Hg10 mi
10:35 AM82 °FSunny.6 mph48%30.15 "Hg10 mi
10:15 AM82 °FSunny.6 mph45%30.15 "Hg10 mi
9:55 AM81 °FSunny.3 mph51%30.15 "Hg10 mi
9:35 AM79 °FSunny.No wind54%30.15 "Hg10 mi
9:15 AM77 °FSunny.No wind57%30.15 "Hg10 mi
8:55 AM75 °FSunny.No wind61%30.16 "Hg10 mi
8:35 AM73 °FSunny.No wind65%30.16 "Hg10 mi
8:15 AM72 °FSunny.No wind69%30.16 "Hg10 mi
7:55 AM70 °FSunny.No wind73%30.16 "Hg10 mi
7:35 AM68 °FSunny.No wind78%30.15 "Hg10 mi
7:15 AM64 °FSunny.No wind88%30.14 "Hg10 mi
6:55 AM63 °FClear.5 mph94%30.14 "Hg10 mi
6:35 AM61 °FClear.3 mph94%30.14 "Hg10 mi
6:15 AM61 °FClear.5 mph88%30.14 "Hg10 mi
Weather by CustomWeather, © 2015

See weather overviewHow to use our weather pages